Location: Newark
(55.1520°N, 2.9990°W)
Time: 03:27:06
(UTC+00:00)

N. Korean satellite - Pass Details

Date: 22 September 2020
Orbit: 453 x 505 km, 97.2° (Epoch: 21 October)

Event Time Altitude Azimuth Distance (km) Brightness Sun altitude
Rises 05:00:43 0° 23° (NNE) 2,616 10.8 -8.9°
Reaches altitude 10° 05:03:11 10° 39° (NE) 1,720 10.2 -8.6°
Maximum altitude 05:06:07 22° 92° (E) 1,140 9.6 -8.2°
Drops below altitude 10° 05:09:00 10° 144° (SE) 1,689 9.6 -7.8°
Sets 05:11:24 0° 160° (SSE) 2,556 10.3 -7.5°
